Flag for U.S.A. Weather past 2 weeks in San Jose, California, U.S.A.

Now
57 °F

Scattered clouds.


Feels Like: 57 °F
Forecast: 49 / 73 °F
Wind: No wind

Location: San Jose International Airport

Current Time: Mar 30, 2015 at 9:35:11 AM

Latest Report: Mar 30, 2015 at 8:53 AM


Visibility: 10 mi

Pressure: 30.05 "Hg

Humidity: 62%

Dew point: 44 °F

Location of San JoseLocation

Historic Weather in San Jose — Graph

°F

San Jose temperature yesterday

Maximum temperature yesterday: 78 °F (at 2:53 PM)
Minimum temperature yesterday: 50 °F (at 4:53 AM)
Average temperature yesterday: 63 °F

Past Weeks' High & Low Weather Summary

 TemperatureHumidityPressure
High85 °F (Mar 26, 3:53 PM)94% (Mar 27, 6:57 AM)30.31 "Hg (Mar 27, 6:57 AM)
Low48 °F (Mar 18, 6:53 AM)21% (Mar 15, 1:53 PM)29.98 "Hg (Mar 16, 3:53 PM)
Average61 °F63%30.12 "Hg
* Reported Mar 15 7:53 AM — Mar 30 7:53 AM, San Jose, Weather by CustomWeather, © 2015

Note: Actual official high and low records may vary slightly from our data, if they occured in-between our weather recording intervals... More about our weather records

Advertising

San Jose weather history for previous 24 hours

 ConditionsComfort  
Time TempWeatherWind HumidityBarometerVisibility
7:53 AM
Mon, Mar 30
53 °FPassing clouds.No wind74%30.04 "Hg10 mi
6:53 AM53 °FPassing clouds.No wind72%30.02 "Hg10 mi
5:53 AM51 °FClear.No wind77%30.01 "Hg10 mi
4:53 AM53 °FClear.No wind74%30.01 "Hg10 mi
3:53 AM52 °FClear.3 mph77%30.02 "Hg10 mi
2:53 AM55 °FClear.No wind80%30.02 "Hg10 mi
1:53 AM57 °FClear.No wind81%30.03 "Hg10 mi
12:53 AM56 °FClear.5 mph84%30.03 "Hg10 mi
11:53 PM
Sun, Mar 29
57 °FClear.5 mph81%30.03 "Hg10 mi
10:53 PM61 °FClear.3 mph72%30.04 "Hg10 mi
9:53 PM60 °FPassing clouds.5 mph72%30.04 "Hg10 mi
8:53 PM64 °FPassing clouds.3 mph63%30.03 "Hg10 mi
7:53 PM64 °FScattered clouds.7 mph54%30.01 "Hg10 mi
6:53 PM69 °FPassing clouds.13 mph53%30.00 "Hg10 mi
5:53 PM76 °FPassing clouds.9 mph29%30.00 "Hg10 mi
4:53 PM78 °FPassing clouds.8 mph30%30.00 "Hg10 mi
3:53 PM76 °FPassing clouds.13 mph37%30.01 "Hg10 mi
2:53 PM78 °FPassing clouds.7 mph32%30.02 "Hg10 mi
1:53 PM75 °FPassing clouds.5 mph34%30.04 "Hg10 mi
12:53 PM73 °FPassing clouds.5 mph34%30.08 "Hg10 mi
11:53 AM69 °FPassing clouds.No wind45%30.10 "Hg10 mi
10:53 AM65 °FPassing clouds.No wind52%30.11 "Hg10 mi
9:53 AM61 °FPassing clouds.No wind60%30.12 "Hg10 mi
Weather by CustomWeather, © 2015

See weather overviewHow to use our weather pages